Regional Weather Roundup
Issued by NWS

Home | Current Version | Previous Version | Text Only | Print | Product List | Glossary On
Versions: 1 2 3 4 5 6 7 8 9 10 11 12 13 14 15 16 17 18 19 20 21 22 23 24 25 26 27 28 29 30 31 32 33 34 35 36 37 38 39 40 41 42 43 44 45 46 47 48 49 50
000
ASUS46 KSEW 281710
RWRWA

WASHINGTON REGIONAL WEATHER ROUNDUP
NATIONAL WEATHER SERVICE SEATTLE WA
1000 AM PDT WED SEP 28 2016

NOTE:"FAIR" INDICATES FEW OR NO CLOUDS BELOW 12,000 FEET WITH NO
SIGNIFICANT WEATHER AND/OR OBSTRUCTIONS TO VISIBILITY.

WAZ505-507>509-281800-
SEATTLE, TACOMA, EVERETT, AND VICINITY

CITY           SKY/WX    TMP DP  RH WIND       PRES   REMARKS
EVERETT        CLOUDY    53  48  83 N9G16     30.13S
BOEING FIELD   CLOUDY    59  49  69 N15       30.12S
RENTON         CLOUDY    56  51  84 VRB5      30.12S
SEATAC AIRPORT PTSUNNY   57  50  77 NE7       30.13R
JBLM-MCCHORD   CLOUDY    56  53  89 VRB5      30.12S
PUYALLUP       CLOUDY    55  52  88 CALM      30.12S
BREMERTON      SUNNY     57  45  62 NE8       30.16S
JBLM-FT LEWIS  CLOUDY    55  51  86 VRB1      30.11S
TACOMA NARROWS PTSUNNY   54  48  80 N5        30.12F
$$

WAZ001-503-506-510-514-515-281800-
NORTH INTERIOR

CITY           SKY/WX    TMP DP  RH WIND       PRES   REMARKS
BELLINGHAM     MOSUNNY   57  52  83 N5        30.12F
FRIDAY HARBOR  SUNNY     60  47  61 VRB7      30.14S
EASTSOUND      MOSUNNY   54  50  87 N10       30.13S
PORT ANGELES   SUNNY     60  40  47 E5        30.14S
EDIZ HOOK      NOT AVBL
PORT TOWNSEND  NOT AVBL
NAS WHIDBEY    MOSUNNY   58  47  66 NW6       30.17S
ARLINGTON      CLOUDY    54  43  66 CALM      30.14S
BURLINGTON     PTSUNNY   55  52  88 NW9       30.13S
$$

WAZ020-022-039-040-504-511-512-281800-
SOUTHWEST INTERIOR

CITY           SKY/WX    TMP DP  RH WIND       PRES   REMARKS
SHELTON        SUNNY     57  46  66 E5        30.10S
OLYMPIA        SUNNY     57  47  69 NE5       30.12S
CHEHALIS       FAIR      59  50  72 VRB6G13   30.11S
KELSO          MOSUNNY   59  47  64 N8        30.09S
VANCOUVER      MOSUNNY   60  46  59 NW7       30.07R
SCAPPOOSE, OR  SUNNY     63  46  54 N15G23    30.06S
PORTLAND, OR   MOSUNNY   60  46  59 N5        30.07S
$$

WAZ021-516-517-281800-
WASHINGTON COAST

CITY           SKY/WX    TMP DP  RH WIND       PRES   REMARKS
FORKS          SUNNY     53  45  74 E3        30.12S
HOQUIAM        SUNNY     55  51  86 E5        30.12S
ASTORIA, OR    SUNNY     59  52  77 CALM      30.10S
$$

WAZ019-023-024-040-518-519-281800-
CASCADE MOUNTAINS AND COLUMBIA GORGE

CITY           SKY/WX    TMP DP  RH WIND       PRES   REMARKS
STAMPEDE PASS  PTSUNNY   56  42  59 CALM      30.10F
TROUTDALE, OR  MOSUNNY   58  46  64 CALM      30.07S
THE DALLES, OR SUNNY     64  49  57 NW8       30.03S
$$

WAZ026-027-041>044-520-521-281800-
EAST SLOPES

CITY           SKY/WX    TMP DP  RH WIND       PRES   REMARKS
OMAK           PTSUNNY   60  32  34 N16G26    30.09F
WENATCHEE      PTSUNNY   61  44  53 W9        30.06S
ELLENSBURG     PTSUNNY   59  46  62 CALM      30.06F
YAKIMA         MOSUNNY   68  45  43 W5        30.04F
$$

WAZ028-034-035-281800-
COLUMBIA BASIN

CITY           SKY/WX    TMP DP  RH WIND       PRES   REMARKS
EPHRATA        MOSUNNY   67  32  27 N12       30.03F
MOSES LAKE     SUNNY     69  32  25 N14       30.03F
PASCO          SUNNY     64  40  41 CALM      30.02F
HERMISTON, OR  SUNNY     66  41  40 SE3       30.02S
$$

WAZ036>038-281800-
NORTHEAST WASHINGTON

CITY           SKY/WX    TMP DP  RH WIND       PRES   REMARKS
SPOKANE GEIGER MOSUNNY   62  42  47 E8        30.06S
SPOKANE FELTS  SUNNY     65  45  48 CALM      30.06S
FAIRCHILD AFB  MOSUNNY   62  41  45 NE7       30.05F
COEURDALENE,ID SUNNY     63  44  50 NE15      30.06F
DEER PARK      SUNNY     67  41  38 N10       30.06S
$$

WAZ029>033-281800-
SOUTHEAST WASHINGTON

CITY           SKY/WX    TMP DP  RH WIND       PRES   REMARKS
PULLMAN        SUNNY     70  47  43 E6        30.05S
LEWISTON, ID   SUNNY     66  48  52 CALM      30.00F
WALLA WALLA    SUNNY     61  37  41 S13       30.02S
PENDLETON, OR  SUNNY     63  35  35 NW9       30.04S
$$



USA.gov is the U.S. government's official web portal to all federal, state and local government web resources and services.